SCP
0 0 0 0 0 0 0 0 0 0 0 0 0 0 0 0 0 -0 0 0 0 0 0 0 0 0 0 0 0 0 0 0 0 0 0 0 0 0 0 0 0 0 0 0 0
0 0 0 0 0 0 0 0 0 0 0 0 0 0 0 0 0 0 0 0 0 0 0 0 0 0 0 0 0 0 0 0 0 0 0 0 0 0 0 0 0 0 0 0 0
0 0 0 0 0 0 0 0 0 0 0 0 0 0 0 0 0 0 0 0 0 0 0 0 0 0 0 0 0 0 0 0 0 0 0 0 0 0 0 0 0 0 0 0 0
0 0 0 0 0 0 0 0 0 0 0 0 0 0 0 0 0 0 0 0 0 0 0 0 0 0 0 0 0 0 0 0 0 0 0 0 0 0 0 0 0 0 0 0 0
0 0 0 0 0 0 0 0 0 0 0 0 0 0 0 0 0 0 0 0 0 0 0 0 0 0 0 0 0 0 0 0 0 0 0 0 0 0 0 0 0 0 0 0 0
0 0 0 0 0 0 0 0 0 0 0 0 0 0 0 0 0 0 0 0 0 0 0 0 0 0 0 0 0 0 0 0 0 0 0 0 0 0 0 0 0 0 0 0 0
0 0 0 0 0 0 0 0 0 0 0 0 0 0 0 0 0 0 0 0 0 0 0 0 0 0 0 0 0 0 0 0 0 0 0 0 0 0 0 0 0 0 0 0 0
0 0 0 0 0 0 0 0 0 0 0 0 0 0 0 0 0 0 0 0 0 0 0 0 0 0 0 0 0 0 0 0 0 0 0 0 0 0 0 0 0 0 0 0 0
0 0 0 0 0 0 0 0 0 0 0 0 0 0 0 0 0 0 0 0 0 0 0 0 0 0 0 0 0 0 0 0 0 0 0 0 0 0 0 0 0 0 0 0 0
0 0 0 0 0 0 0 0 0 0 0 0 0 0 0 0 0 0 0 0 0 0 0 0 0 0 0 0 0 0 0 0 0 0 0 0 0 0 0 0 0 0 0 0 0
0 0 0 0 0 0 0 0 0 0 0 0 0 0 0 0 0 0 0 0 0 0 0 0 0 0 0 0 0 0 0 0 0 0 0 0 0 0 0 0 0 0 0 0 0
0 0 0 0 0 0 0 0 0 0 0 0 0 0 0 0 0 0 0 0 0 0 0 0 0 0 0 0 0 0 0 0 0 0 0 0 0 0 0 0 0 0 0 0 0
0 0 0 0 0 0 0 0 0 0 0 0 0 0 0 0 0 0 0 0 0 0 0 0 0 0 0 0 0 0 0 0 0 0 0 0 0 0 0 0 0 0 0 0 0
0 0 0 0 0 0 0 0 0 0 0 0 0 0 0 0 0 0 0 0 0 0 0 0 0 0 0 0 0 0 0 0 0 0 0 0 0 0 0 0 0 0 0 0 0
0 0 0 0 0 0 0 0 0 0 0 0 0 0 0 0 0 0 0 0 0 0 0 0 0 0 0 0 0 0 0 0 0 0 0 0 0 0 0 0 0 0 0 0 0
0 0 0 0 0 0 0 0 0 0 0 0 0 0 0 0 0 0 0 0 0 0 0 0 0 0 0 0 0 0 0 0 0 0 0 0 0 0 0 -0 0 0 0 0 0
0 0 0 0 0 0 0 0 0 0 0 0 0 0 0 0 0 0 0 0 0 0 0 0 0 0 0 0 0 0 0 0 0 0 0 0 0 0 0 0 0 0 0 0 0
0 0 0 0 0 0 0 1 0 0 0 0 0 0 0 0 0 0 0 0 0 0 0 0 0 0 0 0 0 0 0 0 0 0 0 0 0 0 0 0 0 0 0 0 0
0 0 0 0 0 0 0 1 0 0 0 0 0 0 0 0 0 0 0 0 0 0 0 0 0 0 0 0 0 0 0 0 0 0 0 0 0 0 0 0 0 0 0 0 0
0 0 0 0 0 0 0 0 0 0 0 0 0 0 0 0 0 0 0 0 0 0 0 0 0 0 0 0 0 0 0 0 0 0 0 0 0 0 0 0 0 0 0 0 0
0 0 0 0 0 0 0 0 0 0 0 0 0 0 0 0 0 0 0 0 0 0 0 0 0 0 0 0 0 0 0 0 0 0 0 0 0 0 0 0 0 0 0 0 0
0 0 0 0 0 0 0 0 0 0 0 0 0 0 0 0 0 0 0 0 0 0 0 0 0 0 0 0 0 0 0 0 0 0 0 0 0 0 0 0 0 0 0 0 0
0 0 0 0 0 0 0 0 0 0 0 0 0 0 0 0 0 0 0 0 0 0 0 0 0 0 0 0 0 0 0 0 0 0 0 0 0 0 0 0 0 0 0 0 0
0 0 0 0 0 0 0 0 0 0 0 0 0 0 0 0 0 0 0 0 0 0 0 0 0 0 0 0 0 0 0 0 0 0 0 0 0 0 0 0 0 0 0 0 0
0 0 0 0 0 0 0 0 0 0 0 0 0 0 0 0 0 0 0 0 0 0 0 0 0 0 0 0 0 0 -0 -0 0 0 0 0 0 0 0 0 0 0 0 0 0
0 0 0 0 0 0 0 0 0 0 0 0 0 0 0 0 0 0 0 0 0 0 0 0 0 0 0 0 0 0 0 0 0 0 0 0 0 0 0 0 0 0 0 0 0
0 0 0 0 0 0 0 0 0 0 0 0 0 0 0 0 0 0 0 0 0 0 0 0 0 0 0 0 0 0 0 0 0 0 0 0 0 0 0 0 0 0 0 0 0
Wind_Speed_500mb
33 32 32 34 35 37 38 39 38 39 42 43 45 46 47 46 41 40 25 15 12 14 15 8 4 5 1 2 2 3 10 9 3 6 11 6 3 2 12 10 18 4 10 25 31
37 37 40 40 41 42 42 43 41 41 42 43 43 43 42 43 41 35 20 16 14 12 6 10 8 5 7 6 3 10 10 6 8 5 9 2 8 18 14 17 12 10 17 27 24
43 44 45 44 44 45 45 45 44 42 42 43 40 40 37 36 34 4 2 8 12 13 15 14 6 4 8 5 5 3 11 6 8 5 7 11 18 14 19 12 18 19 26 21 24
49 48 48 49 48 48 47 46 45 41 40 40 38 36 33 27 11 7 5 13 16 16 13 8 6 8 8 11 5 13 7 10 2 2 9 17 18 25 27 26 20 17 14 23 28
53 49 51 49 48 48 47 47 43 38 37 35 36 33 30 14 18 24 17 18 16 10 9 6 9 7 14 5 10 15 6 8 11 17 20 23 25 23 22 7 2 10 20 25 29
56 53 53 52 49 46 46 44 39 35 33 32 32 31 22 26 25 24 24 27 24 11 8 6 8 6 7 9 14 3 6 16 17 21 19 16 7 7 12 2 9 18 26 30 21
54 53 51 48 45 42 42 42 35 32 29 30 32 30 30 36 32 25 23 27 27 16 11 8 10 12 9 8 5 6 15 15 8 5 5 11 16 14 10 6 21 24 30 25 23
43 46 46 43 40 39 38 37 32 30 27 28 30 24 22 29 28 25 33 25 22 15 14 13 10 10 11 5 7 13 9 11 12 7 3 9 9 10 8 23 28 26 23 12 20
38 36 38 38 36 34 34 31 29 28 25 24 20 11 19 20 18 23 28 19 25 24 13 14 13 10 10 17 11 13 15 11 10 4 4 4 11 13 25 26 30 24 18 13 17
35 38 35 34 32 31 28 27 26 24 19 17 23 11 22 5 6 10 17 25 11 30 20 15 14 16 15 17 15 7 13 13 16 15 14 23 28 14 21 18 13 11 13 17 21
33 35 36 30 29 28 24 15 10 12 19 22 9 8 3 8 13 10 21 21 28 27 17 30 17 26 22 24 16 11 15 22 20 11 17 16 21 22 11 6 6 13 15 16 19
47 43 36 30 27 27 25 14 13 8 17 31 42 38 32 8 7 18 29 22 23 18 18 13 28 26 2 10 16 19 21 26 16 5 14 20 27 7 4 7 9 10 11 11 12
43 44 34 28 28 31 32 21 17 10 13 17 26 30 27 37 22 30 40 19 19 23 30 26 6 7 24 18 22 19 23 20 19 19 27 18 35 19 15 12 9 7 6 8 10
42 38 38 32 27 26 29 30 22 5 10 14 15 15 23 21 19 36 39 23 15 28 19 18 15 16 24 25 20 21 7 15 14 12 10 6 12 22 25 15 11 5 2 5 9
45 40 37 40 19 27 21 27 26 7 11 16 12 11 15 36 11 18 39 26 29 19 14 10 20 26 24 21 20 7 6 9 10 15 16 24 13 3 22 28 19 11 4 1 3
54 49 42 41 31 21 23 37 22 7 19 13 12 17 18 24 11 16 29 21 23 16 12 9 5 13 9 8 19 14 12 9 9 11 15 24 24 9 19 29 20 15 12 10 6
62 54 49 46 33 35 43 37 9 18 8 15 15 18 25 20 18 18 31 31 21 18 25 27 26 13 21 18 14 23 13 7 9 10 11 4 16 29 19 16 16 19 19 16 8
64 58 54 49 37 47 55 14 16 24 33 4 9 20 18 29 16 19 31 27 25 14 15 21 14 38 30 35 14 29 24 12 12 15 13 7 15 2 8 19 16 17 23 19 13
72 65 57 54 48 56 37 19 29 31 9 14 19 18 17 20 12 20 26 17 25 29 13 13 10 16 8 13 25 15 18 26 30 24 17 24 27 15 18 17 24 29 29 25 19
79 71 56 52 48 47 13 34 26 9 6 13 23 11 23 25 19 23 24 16 12 34 24 8 10 18 13 18 21 19 19 8 11 14 28 23 27 21 24 28 29 33 35 31 24
70 32 43 63 53 20 19 42 40 19 5 4 12 11 9 11 16 15 11 10 9 13 32 14 15 15 17 25 29 18 23 16 10 17 21 28 21 9 22 30 37 41 39 34 25
45 10 55 79 22 18 29 57 42 28 29 6 5 2 12 13 13 16 18 4 5 16 16 25 12 26 34 24 26 36 33 37 21 25 14 18 32 4 6 17 30 38 37 33 27
31 16 65 86 20 26 51 51 48 29 15 18 14 12 7 11 10 13 10 6 5 8 15 17 14 22 32 14 20 29 40 37 38 29 31 18 15 7 8 17 26 33 36 35 27
28 9 21 54 49 41 54 46 53 40 21 10 6 14 14 19 13 9 15 6 6 5 5 0 16 23 27 9 4 7 20 29 35 21 30 37 37 30 18 21 30 38 43 42 35
19 10 17 21 32 42 43 34 45 49 44 27 18 23 21 14 18 25 26 22 23 19 14 12 29 30 38 37 34 33 35 36 41 42 36 42 42 46 31 25 40 47 45 42 41
16 12 4 45 57 42 39 45 45 48 31 41 37 28 35 33 30 21 27 31 29 14 20 10 22 27 42 37 38 43 49 51 48 49 47 46 58 41 46 21 39 51 53 47 42
27 40 35 36 37 34 36 48 50 32 32 44 33 31 25 36 40 41 29 26 20 20 20 14 14 19 37 33 35 32 51 50 53 46 44 46 52 41 23 27 51 57 54 52 45
Wind_Direction_500mb
267 272 281 286 290 294 296 300 305 307 309 312 313 315 316 316 317 314 315 269 243 227 226 218 224 259 190 212 179 216 241 262 41 228 97 118 240 257 324 299 330 300 344 329 329
263 270 276 281 286 290 293 296 299 302 305 306 310 312 315 318 320 311 291 267 208 196 147 192 195 210 192 170 234 248 256 49 38 32 97 137 315 318 321 320 294 293 320 333 345
264 268 274 280 284 287 290 292 295 298 301 302 305 308 313 322 324 240 339 129 148 151 157 175 169 188 224 209 193 153 279 33 92 100 336 300 293 301 304 282 321 327 322 334 340
259 265 273 278 280 282 284 286 289 293 295 298 301 305 311 317 302 255 182 155 146 137 140 156 192 221 245 234 216 247 251 259 179 226 288 281 301 294 290 291 304 309 327 329 334
256 262 273 276 277 277 280 282 284 289 290 293 297 301 309 278 256 262 238 211 193 174 151 185 222 222 244 247 229 238 238 244 249 279 281 287 273 271 279 338 60 337 330 332 332
254 257 265 273 272 272 274 276 281 282 284 288 290 296 298 266 261 257 234 227 222 208 205 200 226 223 240 232 243 96 264 272 275 278 288 265 264 229 163 66 319 323 331 336 356
249 255 263 266 266 268 270 272 276 278 279 280 284 290 282 261 266 252 232 221 226 215 224 227 214 223 169 201 228 259 274 252 249 160 146 286 210 181 164 317 318 319 330 347 9
252 251 255 258 260 261 263 268 271 273 274 274 280 286 264 265 256 249 234 221 219 202 173 160 154 195 224 181 201 253 266 253 134 219 132 257 269 191 234 310 316 328 344 23 34
269 254 252 251 252 254 259 264 269 268 268 273 280 259 266 267 249 241 224 210 219 196 162 164 168 216 197 223 224 196 263 237 193 188 167 317 292 280 305 317 322 334 359 46 45
259 259 251 246 245 245 249 256 272 281 271 280 256 259 240 201 193 202 185 173 169 166 157 172 196 223 216 213 263 275 235 207 257 149 283 286 275 275 301 326 335 356 55 49 45
253 253 256 241 238 238 234 253 250 249 223 206 238 256 269 227 192 185 166 148 138 164 182 186 207 220 227 228 280 281 269 268 269 262 289 268 278 284 323 307 38 54 45 38 36
246 254 246 238 233 227 215 215 227 230 291 248 245 250 240 195 197 188 171 182 185 199 163 172 224 245 192 201 225 247 265 268 285 271 277 281 284 351 203 104 71 60 62 44 23
234 229 224 224 228 227 221 218 223 263 263 253 228 236 234 218 226 204 183 202 210 198 201 234 104 267 198 205 222 230 255 276 280 310 261 286 262 181 160 140 113 81 70 46 32
227 219 204 204 220 219 223 211 205 190 268 200 208 226 195 181 226 211 202 205 210 227 201 233 214 195 196 219 214 249 232 260 264 277 278 39 284 202 180 185 202 195 8 14 12
213 216 206 197 197 195 213 188 187 157 273 107 151 167 183 189 120 184 194 210 222 183 185 140 177 201 214 212 197 266 162 237 266 268 297 253 255 216 168 218 221 215 216 302 63
215 209 198 200 206 191 192 166 155 159 237 166 144 175 165 199 178 123 181 201 214 192 226 265 153 198 207 153 196 136 172 199 241 279 257 249 218 237 185 221 189 207 204 198 181
210 209 200 197 203 167 156 150 154 214 120 172 178 178 197 176 172 174 176 181 177 182 203 198 207 173 172 159 166 190 195 252 245 212 266 110 243 253 173 174 199 207 201 194 194
207 200 190 194 186 170 166 189 212 221 214 60 166 172 194 162 184 171 172 188 212 219 152 193 194 202 196 217 199 205 208 233 257 261 276 167 244 173 120 188 198 196 185 184 175
194 193 195 190 182 177 177 207 216 230 210 184 163 191 182 191 188 174 190 204 200 205 218 194 210 171 196 191 182 169 220 244 262 261 271 257 252 171 156 188 196 190 185 185 180
192 187 195 188 190 181 202 216 226 206 224 222 208 223 192 181 187 199 181 181 201 204 228 196 221 195 144 161 208 218 151 171 213 239 242 249 254 273 193 211 211 204 197 187 185
191 183 195 179 187 200 207 218 222 218 233 238 210 187 194 163 209 198 168 129 212 197 212 202 235 163 164 208 188 190 204 225 255 248 266 268 269 111 207 209 207 207 202 189 191
179 176 175 173 151 203 209 214 217 217 232 257 326 254 187 157 175 203 211 235 134 158 181 208 248 236 214 221 242 222 226 218 229 223 243 278 267 168 272 211 207 203 194 187 194
180 166 172 170 170 193 223 225 233 224 222 205 229 238 168 182 189 211 178 96 164 191 185 177 212 236 240 225 219 232 236 243 236 253 249 250 248 133 167 192 193 194 184 182 189
161 145 159 188 191 191 205 219 221 222 245 194 229 218 202 219 222 207 209 137 128 111 49 146 245 246 254 286 32 204 252 241 245 240 253 248 276 263 199 204 183 190 187 183 186
149 169 179 170 196 202 201 206 216 214 217 216 227 231 214 229 226 233 239 246 261 248 242 243 260 266 266 268 270 253 247 243 240 241 246 269 272 274 279 208 206 193 187 182 187
143 127 205 160 183 200 201 214 207 209 188 207 226 233 229 235 232 236 238 240 240 213 236 230 261 263 263 262 262 262 257 258 258 259 259 261 266 269 276 230 195 193 186 186 187
159 172 166 170 184 197 204 213 214 208 208 230 227 238 231 230 243 254 268 260 256 246 230 238 240 240 258 258 257 256 248 253 256 254 251 253 258 275 239 215 200 195 193 188 179
Wind_Speed_850mb
33 32 32 34 35 37 38 39 38 39 42 43 45 46 47 46 41 40 25 15 12 14 15 8 4 5 1 2 2 3 10 9 3 6 11 6 3 2 12 10 18 4 10 25 31
37 37 40 40 41 42 42 43 41 41 42 43 43 43 42 43 41 35 20 16 14 12 6 10 8 5 7 6 3 10 10 6 8 5 9 2 8 18 14 17 12 10 17 27 24
43 44 45 44 44 45 45 45 44 42 42 43 40 40 37 36 34 4 2 8 12 13 15 14 6 4 8 5 5 3 11 6 8 5 7 11 18 14 19 12 18 19 26 21 24
49 48 48 49 48 48 47 46 45 41 40 40 38 36 33 27 11 7 5 13 16 16 13 8 6 8 8 11 5 13 7 10 2 2 9 17 18 25 27 26 20 17 14 23 28
53 49 51 49 48 48 47 47 43 38 37 35 36 33 30 14 18 24 17 18 16 10 9 6 9 7 14 5 10 15 6 8 11 17 20 23 25 23 22 7 2 10 20 25 29
56 53 53 52 49 46 46 44 39 35 33 32 32 31 22 26 25 24 24 27 24 11 8 6 8 6 7 9 14 3 6 16 17 21 19 16 7 7 12 2 9 18 26 30 21
54 53 51 48 45 42 42 42 35 32 29 30 32 30 30 36 32 25 23 27 27 16 11 8 10 12 9 8 5 6 15 15 8 5 5 11 16 14 10 6 21 24 30 25 23
43 46 46 43 40 39 38 37 32 30 27 28 30 24 22 29 28 25 33 25 22 15 14 13 10 10 11 5 7 13 9 11 12 7 3 9 9 10 8 23 28 26 23 12 20
38 36 38 38 36 34 34 31 29 28 25 24 20 11 19 20 18 23 28 19 25 24 13 14 13 10 10 17 11 13 15 11 10 4 4 4 11 13 25 26 30 24 18 13 17
35 38 35 34 32 31 28 27 26 24 19 17 23 11 22 5 6 10 17 25 11 30 20 15 14 16 15 17 15 7 13 13 16 15 14 23 28 14 21 18 13 11 13 17 21
33 35 36 30 29 28 24 15 10 12 19 22 9 8 3 8 13 10 21 21 28 27 17 30 17 26 22 24 16 11 15 22 20 11 17 16 21 22 11 6 6 13 15 16 19
47 43 36 30 27 27 25 14 13 8 17 31 42 38 32 8 7 18 29 22 23 18 18 13 28 26 2 10 16 19 21 26 16 5 14 20 27 7 4 7 9 10 11 11 12
43 44 34 28 28 31 32 21 17 10 13 17 26 30 27 37 22 30 40 19 19 23 30 26 6 7 24 18 22 19 23 20 19 19 27 18 35 19 15 12 9 7 6 8 10
42 38 38 32 27 26 29 30 22 5 10 14 15 15 23 21 19 36 39 23 15 28 19 18 15 16 24 25 20 21 7 15 14 12 10 6 12 22 25 15 11 5 2 5 9
45 40 37 40 19 27 21 27 26 7 11 16 12 11 15 36 11 18 39 26 29 19 14 10 20 26 24 21 20 7 6 9 10 15 16 24 13 3 22 28 19 11 4 1 3
54 49 42 41 31 21 23 37 22 7 19 13 12 17 18 24 11 16 29 21 23 16 12 9 5 13 9 8 19 14 12 9 9 11 15 24 24 9 19 29 20 15 12 10 6
62 54 49 46 33 35 43 37 9 18 8 15 15 18 25 20 18 18 31 31 21 18 25 27 26 13 21 18 14 23 13 7 9 10 11 4 16 29 19 16 16 19 19 16 8
64 58 54 49 37 47 55 14 16 24 33 4 9 20 18 29 16 19 31 27 25 14 15 21 14 38 30 35 14 29 24 12 12 15 13 7 15 2 8 19 16 17 23 19 13
72 65 57 54 48 56 37 19 29 31 9 14 19 18 17 20 12 20 26 17 25 29 13 13 10 16 8 13 25 15 18 26 30 24 17 24 27 15 18 17 24 29 29 25 19
79 71 56 52 48 47 13 34 26 9 6 13 23 11 23 25 19 23 24 16 12 34 24 8 10 18 13 18 21 19 19 8 11 14 28 23 27 21 24 28 29 33 35 31 24
70 32 43 63 53 20 19 42 40 19 5 4 12 11 9 11 16 15 11 10 9 13 32 14 15 15 17 25 29 18 23 16 10 17 21 28 21 9 22 30 37 41 39 34 25
45 10 55 79 22 18 29 57 42 28 29 6 5 2 12 13 13 16 18 4 5 16 16 25 12 26 34 24 26 36 33 37 21 25 14 18 32 4 6 17 30 38 37 33 27
31 16 65 86 20 26 51 51 48 29 15 18 14 12 7 11 10 13 10 6 5 8 15 17 14 22 32 14 20 29 40 37 38 29 31 18 15 7 8 17 26 33 36 35 27
28 9 21 54 49 41 54 46 53 40 21 10 6 14 14 19 13 9 15 6 6 5 5 0 16 23 27 9 4 7 20 29 35 21 30 37 37 30 18 21 30 38 43 42 35
19 10 17 21 32 42 43 34 45 49 44 27 18 23 21 14 18 25 26 22 23 19 14 12 29 30 38 37 34 33 35 36 41 42 36 42 42 46 31 25 40 47 45 42 41
16 12 4 45 57 42 39 45 45 48 31 41 37 28 35 33 30 21 27 31 29 14 20 10 22 27 42 37 38 43 49 51 48 49 47 46 58 41 46 21 39 51 53 47 42
27 40 35 36 37 34 36 48 50 32 32 44 33 31 25 36 40 41 29 26 20 20 20 14 14 19 37 33 35 32 51 50 53 46 44 46 52 41 23 27 51 57 54 52 45
Wind_Direction_850mb
267 272 281 286 290 294 296 300 305 307 309 312 313 315 316 316 317 314 315 269 243 227 226 218 224 259 190 212 179 216 241 262 41 228 97 118 240 257 324 299 330 300 344 329 329
263 270 276 281 286 290 293 296 299 302 305 306 310 312 315 318 320 311 291 267 208 196 147 192 195 210 192 170 234 248 256 49 38 32 97 137 315 318 321 320 294 293 320 333 345
264 268 274 280 284 287 290 292 295 298 301 302 305 308 313 322 324 240 339 129 148 151 157 175 169 188 224 209 193 153 279 33 92 100 336 300 293 301 304 282 321 327 322 334 340
259 265 273 278 280 282 284 286 289 293 295 298 301 305 311 317 302 255 182 155 146 137 140 156 192 221 245 234 216 247 251 259 179 226 288 281 301 294 290 291 304 309 327 329 334
256 262 273 276 277 277 280 282 284 289 290 293 297 301 309 278 256 262 238 211 193 174 151 185 222 222 244 247 229 238 238 244 249 279 281 287 273 271 279 338 60 337 330 332 332
254 257 265 273 272 272 274 276 281 282 284 288 290 296 298 266 261 257 234 227 222 208 205 200 226 223 240 232 243 96 264 272 275 278 288 265 264 229 163 66 319 323 331 336 356
249 255 263 266 266 268 270 272 276 278 279 280 284 290 282 261 266 252 232 221 226 215 224 227 214 223 169 201 228 259 274 252 249 160 146 286 210 181 164 317 318 319 330 347 9
252 251 255 258 260 261 263 268 271 273 274 274 280 286 264 265 256 249 234 221 219 202 173 160 154 195 224 181 201 253 266 253 134 219 132 257 269 191 234 310 316 328 344 23 34
269 254 252 251 252 254 259 264 269 268 268 273 280 259 266 267 249 241 224 210 219 196 162 164 168 216 197 223 224 196 263 237 193 188 167 317 292 280 305 317 322 334 359 46 45
259 259 251 246 245 245 249 256 272 281 271 280 256 259 240 201 193 202 185 173 169 166 157 172 196 223 216 213 263 275 235 207 257 149 283 286 275 275 301 326 335 356 55 49 45
253 253 256 241 238 238 234 253 250 249 223 206 238 256 269 227 192 185 166 148 138 164 182 186 207 220 227 228 280 281 269 268 269 262 289 268 278 284 323 307 38 54 45 38 36
246 254 246 238 233 227 215 215 227 230 291 248 245 250 240 195 197 188 171 182 185 199 163 172 224 245 192 201 225 247 265 268 285 271 277 281 284 351 203 104 71 60 62 44 23
234 229 224 224 228 227 221 218 223 263 263 253 228 236 234 218 226 204 183 202 210 198 201 234 104 267 198 205 222 230 255 276 280 310 261 286 262 181 160 140 113 81 70 46 32
227 219 204 204 220 219 223 211 205 190 268 200 208 226 195 181 226 211 202 205 210 227 201 233 214 195 196 219 214 249 232 260 264 277 278 39 284 202 180 185 202 195 8 14 12
213 216 206 197 197 195 213 188 187 157 273 107 151 167 183 189 120 184 194 210 222 183 185 140 177 201 214 212 197 266 162 237 266 268 297 253 255 216 168 218 221 215 216 302 63
215 209 198 200 206 191 192 166 155 159 237 166 144 175 165 199 178 123 181 201 214 192 226 265 153 198 207 153 196 136 172 199 241 279 257 249 218 237 185 221 189 207 204 198 181
210 209 200 197 203 167 156 150 154 214 120 172 178 178 197 176 172 174 176 181 177 182 203 198 207 173 172 159 166 190 195 252 245 212 266 110 243 253 173 174 199 207 201 194 194
207 200 190 194 186 170 166 189 212 221 214 60 166 172 194 162 184 171 172 188 212 219 152 193 194 202 196 217 199 205 208 233 257 261 276 167 244 173 120 188 198 196 185 184 175
194 193 195 190 182 177 177 207 216 230 210 184 163 191 182 191 188 174 190 204 200 205 218 194 210 171 196 191 182 169 220 244 262 261 271 257 252 171 156 188 196 190 185 185 180
192 187 195 188 190 181 202 216 226 206 224 222 208 223 192 181 187 199 181 181 201 204 228 196 221 195 144 161 208 218 151 171 213 239 242 249 254 273 193 211 211 204 197 187 185
191 183 195 179 187 200 207 218 222 218 233 238 210 187 194 163 209 198 168 129 212 197 212 202 235 163 164 208 188 190 204 225 255 248 266 268 269 111 207 209 207 207 202 189 191
179 176 175 173 151 203 209 214 217 217 232 257 326 254 187 157 175 203 211 235 134 158 181 208 248 236 214 221 242 222 226 218 229 223 243 278 267 168 272 211 207 203 194 187 194
180 166 172 170 170 193 223 225 233 224 222 205 229 238 168 182 189 211 178 96 164 191 185 177 212 236 240 225 219 232 236 243 236 253 249 250 248 133 167 192 193 194 184 182 189
161 145 159 188 191 191 205 219 221 222 245 194 229 218 202 219 222 207 209 137 128 111 49 146 245 246 254 286 32 204 252 241 245 240 253 248 276 263 199 204 183 190 187 183 186
149 169 179 170 196 202 201 206 216 214 217 216 227 231 214 229 226 233 239 246 261 248 242 243 260 266 266 268 270 253 247 243 240 241 246 269 272 274 279 208 206 193 187 182 187
143 127 205 160 183 200 201 214 207 209 188 207 226 233 229 235 232 236 238 240 240 213 236 230 261 263 263 262 262 262 257 258 258 259 259 261 266 269 276 230 195 193 186 186 187
159 172 166 170 184 197 204 213 214 208 208 230 227 238 231 230 243 254 268 260 256 246 230 238 240 240 258 258 257 256 248 253 256 254 251 253 258 275 239 215 200 195 193 188 179